Other Public Products
Issued by NWS Grand Forks, ND

Home | Current Version | Previous Version | Graphics & Text | Print | Product List | Glossary On
Versions: 1 2 3 4 5 6 7 8 9 10 11 12 13 14 15 16 17 18 19 20 21 22 23 24 25 26 27 28 29 30 31 32 33 34 35 36 37 38 39 40 41 42 43 44 45 46 47 48 49 50
000
FPUS83 KFGF 252310
OPUFGF
PRAIRIE TO PINES WEATHER ROUNDUP
NATIONAL WEATHER SERVICE EASTERN NORTH DAKOTA/GRAND FORKS ND
500 PM CST SUN JAN 25 2015

 **SATELLITE DATA USED TO AUGMENT SKY COVER AT AUTOMATED STATIONS**
 *****  WEATHER ACROSS EASTERN NORTH DAKOTA  *****

CITY           SKY/WX    TMP DP  RH WIND       PRES   REMARKS
GRAND FORKS    CLOUDY    26  18  71 S9        29.97R WCI  17
GRAND FORKS AF CLOUDY    27  19  73 SW8       29.96S WCI  18
GRAND CITY NWS   N/A     25 N/A N/A S10         N/A  WCI  15
BUXTON         NOT AVBL
DEVILS LAKE    CLOUDY    25  21  86 S9        29.88S WCI  15
FARGO          CLOUDY    26  17  68 SW9       29.99S WCI  17
WAHPETON ARPT  CLOUDY    27  19  74 SW3       30.01S
$$

 *****  WEATHER ACROSS CENTRAL AND WESTERN NORTH DAKOTA  *****

CITY           SKY/WX    TMP DP  RH WIND       PRES   REMARKS
JAMESTOWN      CLOUDY    28  25  88 S12       29.90F WCI  18
BISMARCK       CLOUDY    37  32  82 S5        29.92F
MINOT          CLOUDY    35  30  82 SW14      29.80F
MINOT AFB      CLOUDY    34  34  99 SW8       29.80F
GARRISON         N/A     34  32  92 S7        29.84F
WILLISTON      PTCLDY    43  31  62 SW9       29.82F
DICKINSON      MOCLDY    43  31  62 S10       29.85F
HETTINGER      MOCLDY    42  29  59 S7        29.90F
$$

 *****  OTHER OBSERVATIONS NORTHEAST NORTH DAKOTA  *****

CITY           SKY/WX    TMP DP  RH WIND       PRES   REMARKS
WALHALLA         N/A     25  25 100 S10       29.91F WCI  15
LANGDON        CLOUDY    23  19  86 SW14      29.87F WCI  11
CAVALIER       CLOUDY    27  21  80 S7        29.93F WCI  19
GRAFTON        NOT AVBL
CANDO          CLOUDY    25  23  93 S8        29.88S WCI  16
FORT TOTTEN    NOT AVBL
ROLLA          CLOUDY    21  21 100 SW12      29.83F WCI   9
RUGBY          CLOUDY    27  25  93 S8        29.84F WCI  18
 ***** THE ABOVE OBSERVATIONS ARE NON NWS ARE NOT QUALITY
        CONTROLLED AND MAY MIS-REPORT RAIN FOR SNOW...
$$

 *****  OTHER OBSERVATIONS SOUTHEAST NORTH DAKOTA *****

CITY           SKY/WX    TMP DP  RH WIND       PRES   REMARKS
COOPERSTOWN    NOT AVBL
VALLEY CITY    NOT AVBL
OAKES            N/A     27  27 100 S12       29.96F WCI  16
GWINNER        CLOUDY    30  28  93 SW10      29.98F WCI  21
BUFFALO        NOT AVBL
WYNDMERE         N/A     27  19  74 SW7         N/A  WCI  19
 ***** THE ABOVE OBSERVATIONS ARE NON NWS ARE NOT QUALITY
       CONTROLLED AND MAY MIS-REPORT RAIN FOR SNOW...
$$

  *****  WEATHER ACROSS NORTHERN MINNESOTA  *****

CITY           SKY/WX    TMP DP  RH WIND       PRES   REMARKS
FLAG ISLAND    CLOUDY    12   9  85 S15       29.93F WCI  -4
WARROAD        CLOUDY    18  10  73 CALM      29.96F
ROSEAU         CLOUDY    19  12  73 SW5       29.97R WCI  13
HALLOCK        CLOUDY    19  14  79 S12       29.95F WCI   7
THF RVR FALLS  CLOUDY    19  12  73 SW5       29.98R WCI  13
HALSTAD          N/A     25  14  62 SW9         N/A  WCI  16
FOSSTON        CLOUDY    21  18  86 SW7       29.97R WCI  13
BAUDETTE       CLOUDY    19  11  70 CALM      29.95R
WASKISH        CLOUDY    19  14  79 CALM      29.96R
CROOKSTON      CLOUDY    23  18  80 S8        29.99R WCI  14
$$
  *****  WEATHER ACROSS CENTRAL AND WEST MINNESOTA  *****

CITY           SKY/WX    TMP DP  RH WIND       PRES   REMARKS
BEMIDJI        MOCLDY    27  18  70 S8        29.94S WCI  18
PARK RAPIDS    CLOUDY    28  19  69 S7        29.94F WCI  21
WADENA         PTCLDY    27  19  74 SE6       29.96F WCI  20
DETROIT LAKES  MOCLDY    28  21  74 SW7       29.97S WCI  21
MOORHEAD       CLOUDY    27  19  74 SW8       30.00S WCI  18
FERGUS FALLS   MOCLDY    23  19  86 W6        30.02F WCI  16
ELBOW LAKE     CLOUDY    24  22  93 SW7       29.99F WCI  16
MORRIS MN      CLOUDY    27  23  86 SW5       30.00F WCI  21
STAPLES        CLOUDY    25  18  74 S7        29.98F WCI  17
WHEATON        MOCLDY    25  18  74 CALM      30.03F
$$
  *****  WEATHER ELSEWHERE ACROSS MINNESOTA  *****

CITY           SKY/WX    TMP DP  RH WIND       PRES   REMARKS
DULUTH         FLURRIES  20  13  74 E5        29.99S WCI  13
INTRNTL FALLS  CLOUDY    19   9  65 CALM      29.97S
ELY            MOCLDY    18   7  62 S3        30.00R
CLOQUET        CLOUDY    19  12  73 NE3       30.01R
BRAINERD       PTCLDY    24  14  65 SE3       30.00F
HIBBING        CLOUDY    22  12  65 S3        29.99S
ALEXANDRIA     CLOUDY    26  21  81 S7        29.99F WCI  18
SAINT CLOUD    CLEAR     26  15  63 CALM      30.03R
MINNEAPOLIS    PTCLDY    26  10  50 CALM      30.05R
$$

  *****  WEATHER ACROSS SOUTH DAKOTA  *****

CITY           SKY/WX    TMP DP  RH WIND       PRES   REMARKS
SIOUX FALLS    CLOUDY    34  31  88 NW5       30.03S
BROOKINGS      NOT AVBL
WATERTOWN      CLOUDY    30  25  81 W6        29.98F WCI  24
HURON          CLOUDY    34  30  85 CALM      30.02F
SISSETON         N/A     24  20  84 S3        29.99F
ABERDEEN       CLOUDY    31  27  85 S7        30.00F WCI  24
MITCHELL       CLOUDY    36  31  82 CALM      30.05S
PIERRE         MOCLDY    42  29  59 S5        29.97F
MOBRIDGE       CLOUDY    40  32  73 S5        29.93F
RAPID CITY     CLOUDY    47  23  38 SE7       29.95F
$$

  *****  SOME WEATHER IN NEARBY STATES *****

CITY           SKY/WX    TMP DP  RH WIND       PRES   REMARKS
GLASGOW MT     CLEAR     48  38  68 W9        29.83S
GREAT FALLS MT CLOUDY    56  31  38 SW17      30.03R
CHEYENNE WY    SUNNY     49  27  42 NW18G29   30.13R
SCOTTSBLUFF NE CLEAR     51  34  52 W13       30.05S
OMAHA NE       MOCLDY    39  31  72 NW10      30.07R
DES MOINES IA  CLOUDY    34  28  79 N9        30.03R
DAVENPORT IA   CLOUDY    26  17  68 NE14      29.96R WCI  14
CHICAGO IL     CLOUDY    27  17  66 NE16G25   29.92R WCI  15
EAU CLAIRE WI  CLOUDY    23  10  57 E3        30.03F
LA CROSSE WI   CLOUDY    28  14  55 N5        30.04R WCI  23
$$

  *****  SOME NATIONAL WEATHER *****

CITY           SKY/WX    TMP DP  RH WIND       PRES   REMARKS
LA GUARDIA NY  MOCLDY    36   9  32 NW13      29.88R
RALEIGH NC     PTCLDY    49  32  52 SE5       29.82S
ATLANTA GA     PTCLDY    56  31  38 S9G18     29.74S
NEW ORLEANS LA PTCLDY    63  38  39 SW23G30   29.87F
OKLAHOMA CITY  CLEAR     56  25  30 N25G35    30.05R
ALBUQUERQUE NM MOSUNNY   53  21  28 SW3       30.24F
SALT LAKE CITY MOSUNNY   50  35  56 N9        30.41F
LOS ANGELES CA PTSUNNY   74  32  21 NW6       29.95S
BOISE ID       MOSUNNY   45  35  68 W5        30.41S
SEATTLE WA     PTSUNNY   60  49  66 W5        30.10R
$$

*** WEATHER ACROSS MANITOBA...SASKATCHEWAN AND ONTARIO ***
                ***ONTARIO***

CITY           SKY/WX    TMP DP  RH WIND       PRES   REMARKS
GERALDTON      CLEAR     -4 -11  71 CALM      30.04S
THUNDER BAY    PTCLDY     7   0  72 E6        30.11R WCI  -3
SIOUX LOOKOUT  CLOUDY    12  -4  48 S7        29.94F WCI   2
TORONTO        MOCLDY    14  -4  44 N14       30.02R WCI  -1
BIG TROUT LK   CLOUDY    -2  -6  84 SE7       29.91F WCI -16
PICKLE LAKE    MOCLDY     3  -8  60 S9        29.93F WCI -11
DRYDEN         CLOUDY    12   5  73 S9        29.92F WCI   0
KENORA         CLOUDY    10   3  72 S8        29.91F WCI  -1
$$
                *** MANITOBA***

CITY           SKY/WX    TMP DP  RH WIND       PRES   REMARKS
BRANDON        CLOUDY    23  21  93 SW10      29.79F WCI  12
DAUPHIN        CLOUDY    27  21  80 E7        29.71F WCI  19
ISLAND LAKE    LGT SNOW   7   3  85 SE10      29.75F DRFTSNOWWCI  -8
PILOT MOUND      N/A     21  19  93 S14         N/A  WCI   8
THE PAS        CLOUDY    25  23  93 S13       29.45F WCI  13
THOMPSON       LGT SNOW   5   1  85 E3        29.63F
WINNIPEG       CLOUDY    19  14  79 S14       29.91F WCI   6
LYNN LAKE      LGT SNOW   5   3  92 E10       29.51S WCI -10
CHURCHILL      MOCLDY    -8 -13  77 SE12      29.89R WCI -27
GILLAM         FLURRIES   1  -4  78 SE5       29.76F WCI  -8
$$
                ***SASKATCHEWAN***

CITY           SKY/WX    TMP DP  RH WIND       PRES   REMARKS
ESTEVAN        CLOUDY    36  32  87 SW13G21   29.74F
KINDERSLEY     MOCLDY    39  32  75 W6        29.76R
LLOYDMINSTER   PTCLDY    41  30  65 W16       29.68R
PRINCE ALBERT  MOCLDY    45  32  61 W21       29.54R
REGINA         PTCLDY    37  32  81 W7        29.71R
YORKTON        CLOUDY    34  30  86 S12       29.60F


USA.gov is the U.S. government's official web portal to all federal, state and local government web resources and services.